Location: Mahannah Oil Field
(37.4664°N, 96.6003°W)
Time: 16:58:13
(UTC+00:00)

Vanguard 2 - Pass Details

Date: 23 June 2021
Orbit: 552 x 2937 km, 32.9° (Epoch: 26 July)

Event Time Altitude Azimuth Distance (km) Brightness Sun altitude
Rises 04:50:06 0° 276° (W) 4,598 11.9 -24.8°
Reaches altitude 10° 04:54:44 10° 260° (W) 3,129 10.8 -25.2°
Enters shadow 04:58:41 18° 228° (SW) 2,213 9.7 -25.5°
